Presure
197 187 172 130 144 171 173 163 203 177 160 157 170 190 191 191 104 135 186 187 177 180 181 182 142 112 151 175 150 162 177 160 178 178 173 181 173 173 182 189 94 183 179
225 154 129 191 157 179 165 153 180 152 163 147 143 149 180 187 102 182 185 180 179 181 178 181 163 134 151 152 135 154 182 161 165 174 140 173 154 79 177 186 185 183 164
173 172 233 191 177 165 193 180 168 185 149 170 158 185 169 136 154 150 153 182 169 182 182 178 177 171 132 182 180 179 180 168 168 172 184 113 135 173 166 142 187 188 169
233 163 204 193 180 165 143 152 152 161 154 156 162 164 182 162 179 182 151 178 161 169 164 176 182 181 184 183 181 171 178 173 100 152 167 181 159 174 171 187 187 192 183
223 228 228 204 130 175 146 144 153 182 149 157 155 152 177 160 160 176 169 162 152 153 168 183 180 180 177 184 173 182 170 95 178 173 84 99 145 184 177 188 197 191 179
141 253 252 192 189 173 165 146 163 166 154 163 156 164 156 177 161 165 170 173 165 179 149 152 174 179 169 177 176 107 187 178 163 153 178 173 181 185 182 187 187 165 175
235 254 254 170 191 174 165 156 157 161 177 159 161 168 177 181 174 163 183 181 175 163 143 185 152 179 185 183 134 154 184 181 86 181 170 184 141 191 192 187 176 171 171
271 234 195 158 180 210 182 172 166 164 162 167 169 169 165 178 186 163 171 179 171 151 152 135 150 190 169 170 124 197 173 173 187 151 183 183 178 186 189 166 173 162 158
264 245 187 163 178 170 176 163 161 160 164 172 182 197 176 184 180 175 172 187 185 178 154 152 133 154 182 126 177 153 163 181 165 163 163 171 159 161 169 160 161 150 168
253 213 153 210 232 227 219 200 239 200 188 184 186 184 201 178 191 179 177 157 183 188 110 150 176 183 173 157 162 129 178 175 193 181 179 153 174 179 170 195 208 177 163
257 247 235 224 234 241 225 209 216 198 224 208 151 197 190 190 173 173 184 188 185 148 171 145 163 167 168 171 155 152 154 160 169 168 169 177 186 173 175 165 169 157 167
264 243 238 224 227 231 225 209 203 194 225 221 203 200 198 178 202 185 189 191 149 185 88 178 106 160 151 164 194 159 147 167 171 164 161 156 158 161 164 155 161 156 171
266 244 230 226 229 228 220 205 210 201 230 219 195 201 202 207 184 193 200 140 194 183 193 150 153 103 178 178 166 185 176 172 168 172 161 152 170 164 167 169 160 215 213
288 151 226 235 234 216 206 214 210 221 211 193 208 207 209 197 207 196 194 187 168 195 147 168 165 160 168 179 167 166 176 175 168 167 184 183 187 163 189 201 169 190 198
298 151 229 232 227 214 212 220 201 217 198 200 209 211 194 216 195 189 195 174 199 199 205 171 172 159 165 170 177 171 173 189 173 151 177 151 199 194 169 161 207 160 213
300 190 233 230 220 216 213 203 219 209 197 199 214 204 199 197 158 194 91 193 190 200 191 193 176 188 172 179 180 183 180 180 149 196 135 176 195 205 208 183 213 215 192
169 256 227 220 212 214 207 202 216 198 205 170 179 214 205 203 193 194 198 121 196 188 196 185 188 182 199 183 190 187 127 191 154 203 208 204 208 188 208 195 152 159 217
158 250 225 223 218 210 215 204 200 200 201 206 207 152 210 208 218 196 152 209 201 181 189 191 171 186 191 200 193 184 189 116 152 196 204 210 206 146 139 225 195 226 201
161 258 225 218 215 219 193 201 202 195 192 208 211 205 198 207 190 199 199 189 197 194 192 188 189 194 193 201 195 194 138 186 212 194 215 211 196 215 196 190 212 208 202
157 260 227 224 218 202 205 195 192 195 198 192 204 187 184 195 202 212 178 193 200 189 185 192 189 200 199 204 199 195 207 188 195 221 229 209 202 168 209 228 211 203 227
269 266 227 221 215 204 202 191 193 193 187 204 186 183 193 195 198 193 183 190 189 190 199 186 191 200 209 212 208 228 206 212 200 200 225 201 212 158 210 200 196 233 214
263 262 259 222 210 202 201 195 194 192 199 187 183 180 186 174 215 191 185 198 188 207 195 180 192 205 212 214 181 208 203 162 205 169 192 194 170 224 156 212 217 226 241
263 260 237 215 212 205 198 203 199 197 194 190 199 201 172 185 195 190 182 181 204 189 211 197 161 194 197 206 196 201 191 205 212 208 147 207 227 151 228 211 227 230 234
250 261 255 224 213 205 200 205 205 193 190 184 203 201 185 196 176 201 188 195 191 199 183 187 196 205 197 205 198 201 204 202 211 211 163 215 155 197 225 183 237 206 265
257 251 263 225 213 205 206 204 190 202 190 200 184 185 180 186 200 195 187 191 190 197 204 199 198 202 196 202 205 178 176 203 210 215 183 204 217 217 237 214 220 271 254
255 249 254 236 226 214 203 200 206 192 204 192 191 196 190 205 191 190 192 194 211 199 199 201 198 202 205 209 178 204 216 223 216 221 162 220 254 212 217 216 256 226 240
Wind_Speed
89 81 69 59 55 64 68 64 80 68 59 59 62 69 65 63 41 48 60 58 57 55 53 53 53 40 53 50 51 51 49 51 48 47 47 45 48 49 48 47 58 49 47
98 71 59 81 60 72 65 59 71 62 65 61 61 57 63 65 36 65 62 59 59 58 56 55 57 45 56 55 54 46 53 53 50 50 47 50 50 51 50 51 50 50 49
69 72 91 89 73 67 82 78 72 78 61 67 62 69 64 55 58 56 57 62 59 61 59 58 58 58 58 57 56 56 55 52 53 51 53 48 52 53 53 57 55 52 51
91 70 78 92 81 73 64 64 62 65 60 59 65 67 70 67 67 66 65 66 55 59 56 60 60 60 59 59 58 57 57 56 47 55 55 55 53 55 55 58 59 58 55
89 88 95 94 68 83 67 61 60 80 56 59 61 62 74 70 67 70 69 62 56 56 57 63 62 61 59 61 58 60 56 46 61 61 46 54 54 64 60 66 69 64 61
60 91 92 93 95 85 78 64 75 73 65 71 66 79 72 77 72 73 71 66 66 68 57 56 65 62 58 61 58 47 60 61 59 59 64 65 66 67 65 67 69 66 71
89 92 95 77 94 81 78 73 77 83 85 76 78 81 81 81 79 75 77 72 71 63 65 72 64 66 67 64 48 58 63 64 45 68 65 71 62 71 71 66 62 66 72
90 92 76 63 80 101 96 94 88 88 84 87 86 87 83 84 83 80 79 76 73 68 62 72 71 70 58 57 51 69 64 67 71 59 71 72 66 71 68 60 64 63 67
91 88 74 67 72 76 92 84 84 84 88 91 93 91 90 86 88 88 81 80 84 78 61 67 61 69 61 48 65 61 63 71 70 63 61 67 59 60 63 62 63 63 67
97 82 53 79 95 96 96 100 92 100 100 100 96 92 89 88 89 90 85 71 84 84 42 76 77 61 66 68 66 57 71 71 76 73 71 63 67 69 69 81 85 73 71
100 99 98 95 98 103 94 100 96 100 100 97 73 95 91 91 92 92 90 89 86 70 75 75 69 73 75 73 71 70 70 69 69 69 67 73 77 73 76 73 75 71 80
110 103 102 96 102 104 97 97 96 97 99 104 99 92 91 91 96 93 96 91 69 82 35 77 55 77 73 77 80 75 72 74 74 71 71 66 72 75 77 71 76 76 89
112 105 100 99 104 104 95 94 94 93 96 104 93 92 91 97 96 95 97 68 88 80 89 68 81 50 81 81 81 81 81 78 77 79 73 71 81 80 82 83 77 96 96
88 54 99 105 109 100 92 92 92 95 96 93 96 95 98 96 102 97 95 89 74 89 64 77 82 81 84 85 83 83 86 85 81 74 87 86 89 85 89 97 86 94 97
69 54 101 107 106 102 97 97 91 95 94 91 95 98 92 99 96 92 95 84 92 89 97 83 81 82 86 89 90 89 89 93 83 69 87 76 97 93 84 83 94 89 100
58 74 112 114 102 108 96 89 95 94 93 93 97 93 93 90 70 91 28 91 88 96 88 86 84 86 88 91 92 93 94 92 75 96 66 83 93 99 99 82 98 109 87
58 119 109 104 98 102 97 95 100 90 93 75 80 95 89 95 85 91 94 47 94 87 90 87 88 89 93 94 94 94 67 98 77 99 104 102 103 88 98 96 70 69 122
52 106 109 112 107 97 100 93 91 86 93 92 95 61 91 94 96 91 68 97 95 85 87 90 82 92 95 100 98 93 97 52 73 96 103 110 101 57 59 119 96 131 96
50 84 114 108 109 102 83 94 96 90 86 94 97 99 87 94 90 92 93 88 96 93 91 92 94 96 99 106 103 102 72 93 112 88 114 104 100 106 85 89 123 97 96
45 87 118 112 106 95 102 89 87 92 94 95 98 83 77 90 99 99 77 93 99 89 90 95 95 105 107 111 106 102 113 89 92 119 124 99 98 93 97 131 122 93 146
50 69 117 110 108 100 98 91 92 89 83 99 90 76 91 94 101 90 82 92 91 93 103 93 102 105 112 112 116 115 107 110 101 95 130 86 116 78 114 114 98 151 118
54 58 76 109 104 98 103 94 97 96 100 91 81 76 89 74 98 97 88 105 93 107 107 93 105 113 115 114 85 114 103 69 99 88 95 113 71 139 74 117 127 143 159
48 57 103 107 109 104 98 104 108 97 95 98 92 101 70 87 104 98 87 83 109 99 115 112 72 99 103 115 96 107 72 98 112 111 70 108 145 70 146 110 152 147 149
61 58 89 118 108 106 102 109 106 96 98 90 101 102 92 104 74 108 102 104 102 114 78 77 104 120 105 118 94 98 103 113 118 116 80 133 73 96 145 83 157 101 162
61 62 63 116 107 97 109 104 90 104 98 104 81 87 83 93 114 110 93 99 100 112 119 112 107 113 97 112 111 75 86 96 111 131 99 118 136 129 166 118 119 147 155
61 64 64 98 122 112 104 102 107 98 110 98 94 111 96 116 100 95 101 105 125 103 111 115 103 112 117 122 74 102 127 133 122 140 70 125 155 109 116 104 133 116 127
Wind_Direction
230 234 238 236 244 235 240 245 229 237 246 247 246 239 242 244 254 253 252 254 259 260 263 265 271 259 278 278 280 284 285 289 290 292 292 295 293 297 302 303 296 302 303
223 229 226 231 236 229 236 244 238 243 240 244 247 251 245 244 247 250 251 255 258 260 263 264 272 263 273 276 279 282 281 287 288 291 294 292 293 296 297 301 298 298 297
222 231 220 229 232 235 228 236 241 234 244 240 249 239 247 252 252 257 260 255 263 259 261 265 268 274 273 273 276 279 282 284 288 287 291 296 292 292 295 300 297 296 293
222 230 224 226 233 235 236 236 241 241 246 252 252 254 244 259 252 250 257 256 266 267 270 269 266 268 269 272 275 281 283 285 293 288 291 290 292 292 296 297 298 297 295
219 220 221 226 232 233 234 237 247 240 254 255 257 256 252 258 260 253 257 262 261 263 270 264 266 269 272 271 278 278 284 284 289 292 292 294 295 293 298 302 303 301 297
234 214 214 227 229 233 238 240 247 244 252 253 255 256 257 250 258 261 260 260 261 262 263 267 271 271 275 275 280 276 283 284 289 289 290 290 294 296 299 302 303 301 303
218 212 209 234 231 234 238 241 244 247 244 250 253 252 252 249 255 261 255 258 260 262 259 262 268 269 271 275 281 280 285 283 293 285 289 289 293 294 297 299 299 300 303
210 218 227 241 230 228 232 238 242 245 249 250 251 252 254 251 246 259 259 258 260 256 260 264 266 269 273 281 281 283 280 281 283 286 289 289 295 295 298 295 297 297 296
210 212 228 238 234 234 235 239 243 246 248 247 245 236 250 245 250 255 259 253 255 261 259 262 264 268 277 284 276 279 281 282 285 288 290 288 292 291 294 291 292 291 295
212 221 248 222 217 218 220 229 218 233 240 243 243 245 237 252 245 253 258 256 257 258 264 260 264 273 271 274 276 281 280 282 282 283 288 288 293 294 292 295 296 293 294
211 215 217 218 216 213 218 225 225 233 226 232 240 240 244 244 253 256 256 253 257 257 262 266 268 269 271 273 275 277 279 281 283 285 287 290 293 291 292 291 292 292 292
205 212 214 221 218 217 217 223 227 233 226 228 237 241 244 249 241 254 254 256 257 263 275 266 271 267 270 273 276 277 280 281 283 285 286 286 289 289 290 292 293 293 291
204 209 217 217 218 220 221 223 226 231 225 230 240 241 242 241 252 250 251 255 260 262 264 268 265 287 272 274 275 279 279 282 283 285 285 284 288 288 289 291 293 302 301
205 244 216 213 212 221 227 224 226 226 231 238 238 239 240 244 244 251 257 259 262 262 267 261 264 269 273 275 276 278 281 282 282 283 288 289 292 288 295 298 296 298 302
205 245 213 211 214 222 225 225 228 227 236 239 238 238 245 241 248 253 256 259 261 264 264 263 265 269 271 274 277 279 281 282 282 282 288 287 293 295 295 296 303 298 307
205 222 208 211 214 221 224 227 225 228 237 240 240 241 243 247 248 254 266 260 260 263 264 267 263 269 270 273 274 278 280 282 283 289 284 293 293 295 302 297 306 308 305
231 201 207 215 220 220 223 229 226 232 235 240 242 241 243 246 248 253 257 270 260 263 266 267 270 269 275 273 277 277 281 284 285 291 293 295 297 294 301 302 291 296 309
238 204 211 213 218 220 220 225 233 236 239 243 245 250 245 247 245 255 259 256 262 264 269 270 274 272 275 279 278 278 283 284 285 292 293 296 299 293 285 305 299 309 294
237 206 211 215 217 218 227 228 229 233 240 242 242 244 248 245 252 254 256 262 263 266 268 270 273 276 277 280 279 281 283 286 289 289 293 296 301 305 288 286 308 307 298
239 202 210 212 214 220 221 229 232 236 237 241 244 247 253 255 256 256 259 263 263 268 269 271 273 276 278 278 280 283 284 284 287 296 297 303 305 294 304 304 307 303 311
198 205 208 211 214 218 222 230 232 236 239 240 245 251 253 254 254 258 262 265 266 269 269 271 275 276 276 278 279 282 286 291 293 299 297 295 297 295 303 305 308 308 305
199 197 205 210 213 218 222 229 231 235 237 242 247 250 255 253 248 258 265 265 266 265 269 271 274 276 277 279 279 288 292 283 296 286 300 298 290 305 297 307 306 309 309
192 200 207 210 215 217 222 226 230 232 238 243 244 249 252 259 256 260 264 263 267 270 267 273 271 279 282 284 287 289 285 296 295 299 287 303 302 297 302 305 308 308 309
210 197 208 208 213 217 223 225 227 232 239 247 245 245 253 252 257 257 264 262 267 268 273 276 280 278 285 284 284 290 294 292 297 300 294 303 299 292 305 299 307 303 308
205 205 203 210 215 221 221 223 233 230 238 240 250 252 253 256 251 256 264 265 268 269 270 277 280 280 284 287 290 290 290 296 298 301 303 302 303 299 305 302 306 306 310
207 211 207 217 216 216 223 229 227 236 235 243 251 249 256 251 259 262 263 267 263 269 273 278 282 283 285 286 288 292 293 293 295 298 300 302 307 303 303 304 304 308 308